Theta_e
292 289 287 290 289 287 286 284 284 286 291 288 288 289 292 292 289 290 290 291 292 292 296 293 293 295 296 297 299 300 306 305 304 303 304 303 300 299 298 299 301 300 299 300
288 286 292 292 290 288 286 285 284 287 289 289 288 288 291 292 291 292 294 293 293 293 291 291 292 294 296 297 301 300 306 303 305 305 300 299 297 294 294 294 294 294 295 295
288 290 293 292 289 288 286 285 284 286 287 287 285 285 287 290 291 292 293 295 295 295 295 291 291 293 295 296 301 302 306 304 304 298 294 293 294 293 292 291 291 290 291 291
289 292 291 288 288 290 285 289 288 286 285 281 284 280 285 288 290 290 293 293 294 295 293 291 292 292 295 297 300 301 306 304 301 296 296 297 299 296 293 290 289 288 289 287
288 290 289 288 289 291 287 290 288 286 283 281 281 280 284 285 287 291 294 295 294 294 292 291 292 294 295 297 300 301 305 303 297 297 297 298 297 290 289 288 287 286 286 285
288 292 292 292 291 292 291 288 286 284 282 278 283 283 282 285 289 290 295 294 293 291 291 290 290 292 294 297 300 301 303 298 296 296 297 298 290 289 287 286 285 285 284 282
286 288 290 291 289 289 288 287 280 277 276 278 281 280 287 289 291 292 294 295 290 290 288 288 289 291 293 295 299 302 299 296 295 295 295 292 291 290 289 286 285 283 283 281
283 282 288 291 292 288 287 286 279 272 274 277 282 279 285 290 291 291 291 291 289 289 288 288 289 291 293 295 300 302 297 295 293 294 292 291 290 291 290 287 286 285 284 281
282 282 288 288 289 293 285 284 288 282 271 274 280 283 288 290 290 291 291 288 288 290 288 287 289 291 292 295 299 299 296 294 292 291 290 288 289 289 287 286 285 284 283 281
287 282 285 287 290 289 287 289 282 280 273 269 278 280 283 288 290 291 291 290 290 288 287 287 288 290 291 294 296 296 296 294 291 290 289 289 289 288 287 284 282 282 282 281
289 286 283 286 285 285 285 284 283 284 280 275 272 282 287 289 290 291 290 291 290 289 287 286 287 289 290 291 289 291 293 291 290 289 289 288 287 286 284 283 282 282 281 280
290 288 280 283 285 286 285 286 286 281 278 280 280 285 289 289 290 290 290 291 289 288 287 286 287 287 287 288 288 289 290 290 289 288 288 287 286 284 283 283 282 281 280 280
292 286 280 282 283 284 284 286 289 286 283 281 278 285 287 288 289 290 289 290 289 287 285 285 285 286 287 287 287 288 288 289 287 287 287 286 284 284 283 282 281 280 279 279
298 289 285 283 284 286 283 285 287 289 283 283 284 288 290 288 289 290 290 289 288 287 286 284 284 285 286 287 287 287 287 287 287 286 286 285 284 284 283 282 281 279 279 279
296 286 288 288 288 288 286 285 287 287 288 285 288 288 292 294 291 293 292 291 289 288 286 284 284 284 284 285 286 286 287 286 286 285 285 285 284 284 282 281 280 279 279 279
294 286 288 286 289 289 287 290 289 287 288 289 290 289 297 295 294 290 292 293 291 289 288 287 285 284 284 285 286 286 286 285 285 285 284 284 283 282 281 281 280 279 279 279
290 287 285 284 286 287 282 286 288 290 291 290 286 291 296 295 292 293 294 292 292 292 291 289 287 287 286 286 286 285 286 285 284 284 284 284 283 282 281 280 279 278 278 278
288 285 286 285 285 278 287 291 292 290 292 292 293 295 296 295 294 294 292 292 293 292 292 291 290 288 287 286 286 286 284 283 283 283 282 282 283 282 280 279 279 279 278 278
294 288 284 283 283 285 286 284 286 287 288 294 292 293 295 296 287 294 292 292 292 291 291 291 291 290 287 285 285 283 282 282 282 282 282 281 281 281 279 278 278 279 278 278
290 291 287 285 280 278 285 281 284 290 285 292 294 294 293 289 283 292 286 286 288 287 287 287 287 286 284 282 282 282 281 281 281 282 282 281 282 281 280 280 279 279 279 278
282 284 282 283 282 283 286 281 285 283 284 279 286 292 290 287 289 285 285 284 284 284 284 284 283 283 282 281 281 280 279 279 281 280 280 281 282 281 281 280 279 278 278 277
281 281 281 283 280 279 285 283 284 287 281 280 282 284 285 285 283 283 284 283 283 282 282 281 279 279 279 280 280 278 278 279 279 281 280 281 282 281 281 280 279 278 278 277
281 282 281 283 282 284 284 285 284 284 283 282 283 283 282 283 282 282 284 283 282 281 281 279 278 278 278 279 279 278 280 280 279 279 280 281 281 281 281 280 279 278 278 277
284 284 283 282 286 286 284 284 283 282 282 281 281 281 282 282 281 280 279 282 281 278 278 278 280 280 281 282 282 282 282 282 283 282 281 282 281 281 282 282 281 280 279 279
282 283 281 282 285 284 287 285 285 284 281 280 281 282 282 282 279 280 278 278 279 277 276 278 279 280 279 280 280 281 282 284 284 283 281 282 282 282 282 281 282 282 282 283
282 282 281 280 286 286 288 287 285 284 281 281 281 280 280 280 280 278 278 277 276 276 275 276 275 275 273 273 272 272 273 277 278 277 278 279 279 278 277 276 274 280 279 283
Wind_Speed
3 4 8 15 8 3 6 4 5 5 4 3 9 10 13 7 7 10 13 12 14 16 17 9 9 9 8 7 8 8 9 8 8 4 3 3 4 2 3 3 6 5 5 10
4 7 12 5 6 4 3 3 5 5 3 5 7 15 13 13 10 12 17 16 17 13 9 9 11 12 12 10 11 9 10 10 8 5 3 3 4 3 4 3 5 4 8 6
9 5 5 8 4 5 5 6 5 7 3 4 5 10 8 10 8 10 12 15 13 19 18 12 13 15 11 12 15 13 12 12 9 8 7 5 6 4 3 3 3 3 6 6
7 3 5 4 5 9 7 9 5 3 2 6 2 10 7 7 10 8 15 14 21 18 10 8 14 14 17 16 12 12 13 12 9 11 9 12 7 7 3 3 4 4 6 7
9 8 6 6 7 8 6 6 7 3 4 4 5 1 8 1 7 14 17 17 15 12 10 12 16 16 13 12 13 12 13 12 11 11 11 10 9 4 6 6 9 6 6 7
5 1 6 7 2 5 6 6 5 5 3 7 10 10 6 7 10 6 11 12 9 7 8 8 8 9 11 11 13 13 15 12 12 12 12 12 12 11 10 8 7 5 5 5
2 6 3 4 6 3 3 6 3 4 1 12 6 3 12 8 7 9 12 12 3 3 6 7 9 10 11 15 16 14 15 13 12 13 12 10 12 14 16 15 10 11 7 4
10 10 13 8 14 10 10 9 9 9 5 7 3 10 8 9 10 10 8 7 4 4 5 7 8 9 10 13 17 17 17 15 14 13 12 11 12 8 9 10 9 10 9 8
7 8 1 2 2 11 7 8 4 3 2 3 7 9 9 8 11 11 11 2 4 7 5 7 6 7 8 12 15 15 14 13 14 13 11 10 11 11 10 9 9 6 8 8
4 4 2 1 3 3 6 7 4 2 3 5 7 8 10 6 10 11 12 8 9 6 6 6 7 8 7 8 10 11 13 14 14 13 12 12 13 12 11 10 10 10 9 12
5 4 1 3 7 11 4 5 1 4 6 6 3 11 9 10 10 8 5 5 5 7 8 7 7 6 8 7 8 8 11 13 13 12 12 13 13 13 12 12 11 11 11 11
7 2 5 10 3 2 2 6 8 6 5 5 3 20 3 5 4 5 4 0 1 4 6 7 7 7 7 9 10 12 12 13 12 11 11 12 12 12 13 13 13 12 12 10
10 3 2 6 1 1 5 6 10 4 4 12 8 17 2 2 5 4 3 5 3 3 5 6 6 8 10 10 10 11 11 12 12 13 13 12 13 14 14 14 13 13 12 11
12 7 9 11 2 3 7 10 16 19 9 10 20 26 10 2 4 6 7 7 8 8 7 6 6 8 9 10 12 13 12 12 13 13 14 14 15 15 14 13 13 12 11 11
8 9 11 16 4 6 4 6 12 19 28 12 30 20 30 15 8 12 8 6 7 7 8 8 9 8 8 10 11 11 11 12 13 14 14 15 14 14 14 14 14 12 12 12
6 4 8 18 16 16 15 15 16 15 21 21 31 31 25 10 8 4 12 13 7 7 10 10 8 8 11 14 14 13 14 14 14 15 15 13 15 16 16 16 15 14 13 12
13 10 7 14 6 8 8 29 19 21 20 23 25 36 29 22 10 8 13 7 9 11 10 9 12 15 14 15 14 17 14 11 14 14 13 14 15 16 15 15 15 15 14 13
5 5 6 9 4 13 12 10 23 25 26 23 27 32 29 15 9 11 5 5 10 8 9 9 8 9 11 10 12 9 10 13 14 13 13 13 14 14 14 14 15 15 14 14
14 7 4 6 10 7 9 7 10 13 21 22 27 29 29 17 1 16 9 6 5 5 6 6 7 7 5 9 9 9 10 11 12 14 12 13 14 14 15 16 16 12 13 11
16 14 11 9 13 15 10 1 3 7 13 12 21 27 25 6 3 11 3 4 6 6 6 7 6 3 6 5 8 10 10 10 12 10 11 10 12 13 14 14 13 11 11 11
6 7 16 13 11 4 6 4 3 9 10 2 4 13 5 6 3 1 6 3 4 4 6 6 4 3 3 7 8 7 7 7 6 7 8 10 9 9 9 9 6 8 8 8
13 10 7 9 12 18 8 3 10 6 2 4 3 4 5 4 2 1 3 4 6 6 7 7 5 5 4 6 7 6 6 5 6 8 9 9 9 8 9 11 8 9 9 8
5 4 4 5 4 4 5 4 2 2 3 4 4 4 2 3 3 3 3 2 2 3 3 2 5 5 5 6 7 8 5 8 9 10 9 9 10 10 11 11 11 9 9 9
4 3 1 5 3 11 6 6 3 2 3 2 1 4 4 2 0 2 1 0 3 3 3 1 6 6 5 5 5 6 7 8 10 9 9 9 10 10 10 8 8 8 9 8
1 4 5 4 10 1 9 11 8 5 2 4 4 5 5 5 3 2 1 1 3 2 2 3 3 5 6 5 6 5 5 6 8 8 7 7 6 8 8 6 7 7 6 9
5 7 5 10 7 5 6 5 8 8 8 6 5 4 2 3 4 4 4 3 3 5 2 5 6 7 6 7 7 6 5 5 7 6 5 5 6 5 5 5 3 5 2 10
Wind_Direction
12 111 198 214 192 141 137 186 213 238 240 194 231 255 266 260 236 254 245 243 239 231 244 200 194 187 189 192 182 179 166 161 150 148 146 135 131 109 73 74 96 111 81 119
45 227 227 121 163 173 157 210 255 278 238 187 275 262 250 253 233 224 241 235 235 236 218 199 193 186 191 186 188 180 181 170 171 163 118 122 128 89 94 85 81 90 114 112
175 219 135 149 155 162 213 196 214 225 326 237 313 272 231 260 251 257 254 243 240 228 231 208 193 197 185 189 190 185 181 176 172 137 113 101 94 88 94 100 97 80 114 107
247 262 139 170 192 160 246 202 183 183 63 254 167 283 222 238 248 235 251 232 240 235 230 192 193 194 196 196 179 180 182 177 165 156 153 169 166 158 162 135 124 114 126 117
234 173 179 186 201 167 231 130 159 154 169 342 218 227 260 218 257 254 253 248 239 233 209 205 199 203 197 175 177 176 179 176 167 171 170 172 156 112 126 129 130 131 119 114
238 166 173 199 124 158 141 83 60 59 106 270 198 193 212 193 209 241 251 260 245 235 216 203 186 171 179 171 174 174 181 174 171 174 174 173 151 148 141 146 144 145 136 116
135 219 185 156 93 54 147 106 307 327 12 242 340 250 259 276 246 221 250 262 51 159 198 186 175 180 173 179 180 176 175 177 174 178 177 164 161 165 165 160 160 155 151 146
191 259 166 194 196 168 198 163 170 210 210 275 346 246 248 237 264 247 264 274 127 201 215 207 190 183 184 186 185 179 176 172 174 176 175 168 163 163 166 166 163 166 164 150
167 261 258 105 105 154 199 206 195 69 80 6 228 282 290 269 283 271 246 151 234 252 243 221 187 184 181 185 188 184 178 169 174 173 164 163 162 160 163 161 162 165 149 143
225 282 49 355 113 29 164 171 84 347 196 257 271 268 230 259 248 259 270 248 232 235 234 214 195 182 183 185 186 181 180 175 175 170 170 171 166 164 162 159 160 162 154 150
158 148 224 132 209 172 147 204 117 133 156 182 291 264 217 225 230 231 265 263 249 212 216 210 199 189 174 166 165 172 178 169 175 174 172 168 167 165 161 167 163 164 158 161
207 185 221 208 224 258 319 222 168 148 215 243 168 266 158 238 301 207 246 247 267 222 207 201 185 172 177 184 179 181 178 174 176 172 171 173 165 160 168 172 167 164 166 167
163 186 314 310 6 11 217 202 205 95 70 216 153 266 355 356 333 336 259 290 283 250 228 200 175 188 192 193 189 188 186 183 171 167 168 171 171 173 177 174 170 166 160 163
128 158 201 230 178 128 197 194 201 204 217 226 230 247 248 125 286 306 272 222 217 221 223 210 201 209 199 201 198 194 191 183 175 172 174 177 178 177 177 169 169 167 167 162
147 210 198 238 204 144 237 218 209 208 230 219 253 249 255 253 223 238 243 247 218 228 235 227 222 213 207 202 207 205 200 187 178 178 182 186 174 172 170 168 168 167 169 168
170 243 192 246 229 234 234 252 240 226 235 241 257 262 256 253 230 203 236 245 250 235 232 232 218 207 212 214 208 199 201 193 179 183 189 178 173 171 174 172 170 165 168 163
183 182 181 250 186 224 234 229 224 230 227 218 237 246 257 255 233 245 256 218 227 240 242 227 216 216 216 211 199 206 198 177 189 190 184 180 178 177 176 168 163 166 167 159
240 216 173 241 187 242 243 162 209 220 233 223 240 253 254 248 252 242 230 232 254 246 243 245 241 225 214 208 203 188 175 180 183 188 185 178 176 173 169 167 172 168 167 170
201 178 243 229 232 273 290 186 157 176 248 230 231 249 260 261 360 272 207 223 262 290 285 268 260 246 196 187 180 166 169 174 180 189 186 178 173 172 168 172 173 169 165 172
213 224 216 225 236 254 273 238 184 117 250 220 209 234 245 122 205 270 88 349 311 306 297 301 301 257 188 159 141 155 172 173 191 181 176 170 172 171 175 173 171 167 167 165
198 208 225 224 241 242 250 191 145 162 228 257 219 231 226 185 207 130 311 323 316 299 324 332 14 59 108 121 126 141 142 175 157 135 139 155 163 161 158 146 136 143 144 142
179 178 208 225 241 246 173 82 177 212 65 166 183 155 174 198 277 253 315 7 9 357 357 4 51 58 70 111 114 120 119 131 126 129 136 139 139 138 138 137 131 137 144 146
213 179 177 211 224 345 266 314 346 130 153 198 171 149 178 197 177 183 206 154 92 63 76 55 81 76 59 81 103 110 131 128 124 121 129 134 131 137 143 144 148 153 165 177
231 150 272 20 310 310 271 265 252 268 176 154 182 157 177 216 166 135 238 124 71 33 3 69 114 114 95 89 93 123 133 132 132 132 139 145 150 157 163 165 170 174 180 188
291 157 198 250 248 290 245 234 201 191 203 174 180 183 196 169 196 176 163 52 73 70 31 46 79 87 82 74 77 65 101 136 135 138 146 156 163 164 165 169 178 193 200 197
193 233 236 264 269 201 222 283 162 182 205 213 179 159 185 168 172 120 102 81 86 82 53 75 79 91 71 66 55 37 44 111 123 125 141 151 144 137 136 139 96 74 161 196